W2CS Weather Reports


time (UTC)temp
C
wind
direction
speed
KPH
gust
KPH
rain 1hr
cm
rain 24hr
cm
rain mn
cm
humidity
%
barometer
mb
20260510205539 15 0 0.0 3.2 0.00 0.00 0.00 88 1012.6
20260510205039 15 0 0.0 3.2 0.00 0.00 0.00 87 1012.7
20260510204553 15 0 0.0 3.2 0.00 0.00 0.00 87 1012.7
20260510204036 15 176 0.0 3.2 0.00 0.00 0.00 87 1012.9
20260510203539 15 0 0.0 6.4 0.00 0.00 0.00 87 1013.0
20260510203052 15 0 0.0 6.4 0.00 0.00 0.00 86 1013.0
20260510202536 16 245 0.0 3.2 0.00 0.00 0.00 87 1012.9
20260510202036 16 0 0.0 3.2 0.00 0.00 0.00 87 1012.8
20260510201550 16 0 0.0 3.2 0.00 0.00 0.00 86 1012.9
20260510201045 16 0 0.0 3.2 0.00 0.00 0.00 86 1012.9
20260510200539 16 0 0.0 3.2 0.00 0.00 0.00 86 1012.9
20260510200046 16 0 0.0 3.2 0.00 0.00 0.00 86 1013.0
20260510195542 17 334 0.0 4.8 0.00 0.00 0.00 85 1012.9
20260510195039 17 260 0.0 4.8 0.00 0.00 0.00 85 1013.0
20260510194550 17 187 0.0 4.8 0.00 0.00 0.00 85 1013.0
20260510194039 17 0 0.0 6.4 0.00 0.00 0.00 84 1013.0
20260510193542 17 243 1.6 6.4 0.00 0.00 0.00 85 1013.1
20260510193100 17 330 0.0 6.4 0.00 0.00 0.00 83 1013.0
20260510192538 18 0 0.0 6.4 0.00 0.00 0.00 84 1013.0
20260510192039 18 245 1.6 4.8 0.00 0.00 0.00 83 1013.1
20260510191547 18 186 0.0 3.2 0.00 0.00 0.00 85 1013.1
20260510191038 18 0 0.0 4.8 0.00 0.00 0.00 86 1013.1
20260510190538 17 0 0.0 4.8 0.00 0.00 0.00 84 1013.1
20260510190047 17 0 1.6 4.8 0.00 0.00 0.00 85 1013.2
20260510185539 17 22 1.6 4.8 0.00 0.00 0.00 84 1013.1
20260510185040 17 212 0.0 4.8 0.00 0.00 0.00 86 1013.0
20260510184547 17 199 1.6 6.4 0.00 0.00 0.00 85 1013.1
20260510184039 17 0 1.6 6.4 0.00 0.00 0.00 86 1013.2
20260510183539 17 193 1.6 6.4 0.00 0.00 0.00 84 1013.2
20260510183052 17 0 0.0 6.4 0.00 0.00 0.00 85 1013.3
20260510182543 17 183 1.6 4.8 0.00 0.00 0.00 86 1013.4
20260510182039 17 180 0.0 3.2 0.00 0.00 0.00 88 1013.5
20260510181549 17 218 0.0 3.2 0.00 0.00 0.00 87 1013.6
20260510181039 17 0 0.0 4.8 0.00 0.00 0.00 87 1013.6
20260510180539 16 337 0.0 4.8 0.00 0.00 0.00 88 1013.8
20260510180057 16 0 0.0 4.8 0.00 0.00 0.00 87 1013.9
20260510175538 16 332 0.0 3.2 0.00 0.00 0.00 87 1013.9
20260510175039 16 334 0.0 3.2 0.00 0.00 0.00 88 1013.9
20260510174548 16 0 0.0 3.2 0.00 0.00 0.00 87 1013.9
20260510174040 16 0 0.0 3.2 0.00 0.00 0.00 87 1013.9
20260510173542 16 0 0.0 3.2 0.00 0.00 0.00 87 1013.8
20260510173052 16 0 0.0 3.2 0.00 0.00 0.00 87 1013.8
20260510172539 16 351 0.0 3.2 0.00 0.00 0.00 87 1013.7
20260510172040 16 0 0.0 3.2 0.00 0.00 0.00 87 1013.8
20260510171555 16 241 0.0 3.2 0.00 0.00 0.00 87 1013.7
20260510171039 16 0 0.0 3.2 0.00 0.00 0.00 87 1013.6
20260510170541 16 267 0.0 3.2 0.00 0.00 0.00 88 1013.6
20260510170100 16 278 0.0 3.2 0.00 0.00 0.00 88 1013.5
20260510165539 16 0 0.0 1.6 0.00 0.00 0.00 88 1013.6
20260510165041 16 0 0.0 3.2 0.00 0.00 0.00 88 1013.6
20260510164601 16 245 0.0 4.8 0.00 0.00 0.00 86 1013.7
20260510164038 16 0 0.0 6.4 0.00 0.00 0.00 86 1013.8
20260510163539 16 243 1.6 6.4 0.00 0.00 0.00 86 1013.8
20260510163054 17 0 1.6 6.4 0.00 0.00 0.00 86 1013.8
20260510162539 17 243 0.0 6.4 0.00 0.00 0.00 86 1013.9
20260510162038 17 273 0.0 4.8 0.00 0.00 0.00 88 1013.8
20260510161551 17 254 0.0 3.2 0.00 0.00 0.00 87 1013.7
20260510161039 17 280 0.0 4.8 0.00 0.00 0.00 87 1013.7
20260510160540 17 278 1.6 6.4 0.00 0.00 0.00 86 1013.7
20260510160100 17 0 0.0 6.4 0.00 0.00 0.00 86 1013.6
20260510155539 17 175 0.0 6.4 0.00 0.00 0.00 87 1013.6
20260510155039 17 299 1.6 6.4 0.00 0.00 0.00 86 1013.6
20260510154603 17 347 0.0 6.4 0.00 0.00 0.00 85 1013.7
20260510154039 17 0 1.6 4.8 0.00 0.00 0.00 87 1013.7
20260510153538 17 0 1.6 4.8 0.00 0.00 0.00 86 1013.7
20260510153051 17 268 1.6 4.8 0.00 0.00 0.00 87 1013.8
20260510152539 17 231 0.0 4.8 0.00 0.00 0.00 87 1013.8
20260510152039 17 345 0.0 4.8 0.00 0.00 0.00 88 1013.7
20260510151550 16 0 0.0 6.4 0.00 0.00 0.00 89 1013.8
20260510151038 16 0 0.0 6.4 0.00 0.00 0.00 87 1013.8
20260510150540 16 182 0.0 6.4 0.00 0.00 0.00 88 1013.7
20260510150055 16 0 0.0 3.2 0.00 0.00 0.00 90 1013.9
20260510145539 15 0 0.0 3.2 0.00 0.00 0.00 90 1013.9
20260510145039 15 301 0.0 3.2 0.00 0.00 0.00 90 1013.9
20260510144549 15 301 0.0 3.2 0.00 0.00 0.00 91 1013.9
20260510144039 15 0 0.0 1.6 0.00 0.00 0.00 91 1013.9
20260510143540 15 0 0.0 1.6 0.00 0.00 0.00 91 1013.8
20260510143053 15 0 0.0 1.6 0.00 0.00 0.00 92 1013.9
20260510142541 15 0 0.0 1.6 0.00 0.00 0.00 91 1014.0
20260510142039 14 0 0.0 1.6 0.00 0.00 0.00 92 1014.1
20260510141550 14 0 0.0 3.2 0.00 0.00 0.00 92 1014.1
20260510141038 15 0 0.0 3.2 0.00 0.00 0.00 92 1013.9
20260510140538 15 305 0.0 1.6 0.00 0.00 0.00 93 1013.7
20260510140054 15 0 0.0 3.2 0.00 0.00 0.00 93 1013.5
20260510135539 14 0 0.0 3.2 0.00 0.00 0.00 93 1013.3
20260510135039 14 303 0.0 3.2 0.00 0.00 0.00 93 1013.2
20260510134545 14 0 0.0 3.2 0.00 0.00 0.00 94 1013.1
20260510134039 14 0 0.0 3.2 0.00 0.00 0.00 94 1013.2
20260510133538 14 139 0.0 1.6 0.00 0.00 0.00 94 1013.2
20260510133058 13 0 0.0 1.6 0.00 0.00 0.00 94 1013.2
20260510132538 13 0 0.0 1.6 0.00 0.00 0.00 94 1013.4
20260510132039 13 0 0.0 1.6 0.00 0.00 0.00 94 1013.3
20260510131552 13 0 0.0 1.6 0.00 0.00 0.00 94 1013.2
20260510131038 13 0 0.0 1.6 0.00 0.00 0.00 94 1013.2
20260510130542 13 0 0.0 1.6 0.00 0.00 0.00 94 1013.3
20260510130051 13 0 0.0 1.6 0.00 0.00 0.00 94 1013.2
20260510125539 13 0 0.0 1.6 0.00 0.00 0.00 94 1013.2
20260510125039 13 0 0.0 1.6 0.00 0.00 0.00 94 1013.3
20260510124607 13 0 0.0 0.0 0.00 0.00 0.00 94 1013.4
20260510124039 13 0 0.0 0.0 0.00 0.00 0.00 95 1013.4
20260510123539 13 0 0.0 0.0 0.00 0.00 0.00 95 1013.4
20260510123052 13 0 0.0 0.0 0.00 0.00 0.00 95 1013.3
20260510122541 13 0 0.0 3.2 0.00 0.00 0.00 95 1013.3
20260510122039 13 0 0.0 3.2 0.00 0.00 0.00 95 1013.4
20260510121549 13 139 0.0 3.2 0.00 0.00 0.00 95 1013.2
20260510121039 13 0 0.0 3.2 0.00 0.00 0.00 95 1013.3
20260510120538 12 297 0.0 3.2 0.00 0.00 0.00 95 1013.1
20260510120048 12 0 0.0 3.2 0.00 0.00 0.00 95 1013.2
20260510115538 12 0 0.0 3.2 0.00 0.00 0.00 95 1013.3
20260510115038 12 297 0.0 3.2 0.00 0.00 0.00 95 1013.2
20260510114553 12 0 0.0 3.2 0.00 0.00 0.00 95 1013.3
20260510114040 12 0 0.0 0.0 0.00 0.00 0.00 95 1013.3
20260510113542 12 0 0.0 0.0 0.00 0.00 0.00 95 1013.4
20260510113052 12 0 0.0 0.0 0.00 0.00 0.00 95 1013.5
20260510112539 12 0 0.0 0.0 0.00 0.00 0.00 95 1013.2
20260510112039 12 0 0.0 0.0 0.00 0.00 0.00 95 1013.3
20260510111607 12 0 0.0 3.2 0.00 0.00 0.00 95 1013.2
20260510111038 12 0 0.0 3.2 0.00 0.00 0.00 95 1013.1
20260510110538 12 0 0.0 3.2 0.00 0.00 0.00 95 1013.0
20260510110051 12 0 0.0 1.6 0.00 0.00 0.00 95 1013.0
20260510105540 11 0 0.0 1.6 0.00 0.00 0.00 95 1013.2
20260510105039 11 0 0.0 1.6 0.00 0.00 0.00 95 1013.0
20260510104601 11 0 0.0 0.0 0.00 0.00 0.00 95 1013.0
20260510104039 11 0 0.0 0.0 0.00 0.00 0.00 95 1013.1
20260510103538 11 0 0.0 0.0 0.00 0.00 0.00 95 1013.2
20260510103047 11 0 0.0 0.0 0.00 0.00 0.00 95 1013.2
20260510102543 11 0 0.0 0.0 0.00 0.00 0.00 95 1013.2
20260510102039 11 0 0.0 0.0 0.00 0.00 0.00 95 1013.1
20260510101553 11 0 0.0 0.0 0.00 0.00 0.00 95 1013.0
20260510101043 11 0 0.0 0.0 0.00 0.00 0.00 95 1013.0
20260510100542 11 0 0.0 0.0 0.00 0.00 0.00 95 1012.9
20260510100051 11 0 0.0 0.0 0.00 0.00 0.00 95 1012.9
20260510095537 11 0 0.0 0.0 0.00 0.00 0.00 95 1012.7
20260510095039 11 0 0.0 0.0 0.00 0.00 0.00 95 1012.8
20260510094551 11 0 0.0 0.0 0.00 0.00 0.00 95 1012.8
20260510094036 11 0 0.0 1.6 0.00 0.00 0.00 95 1012.9
20260510093542 11 0 0.0 3.2 0.00 0.00 0.00 95 1012.8
20260510093048 11 0 0.0 3.2 0.00 0.00 0.00 95 1012.5
20260510092537 11 0 0.0 0.0 0.00 0.00 0.00 95 1012.5
20260510092042 11 0 0.0 0.0 0.00 0.00 0.00 95 1012.6
20260510091555 11 0 0.0 0.0 0.00 0.00 0.00 95 1012.6
20260510091040 11 0 0.0 0.0 0.00 0.00 0.00 95 1012.5
20260510090539 11 0 0.0 0.0 0.00 0.00 0.00 95 1012.4
20260510090101 11 0 0.0 0.0 0.00 0.00 0.00 95 1012.4
20260510085538 11 0 0.0 0.0 0.00 0.00 0.00 95 1012.2
20260510085039 11 0 0.0 0.0 0.00 0.00 0.00 95 1012.2
20260510084557 11 0 0.0 0.0 0.00 0.00 0.00 95 1012.3
20260510084039 11 0 0.0 1.6 0.00 0.00 0.00 95 1012.3
20260510083538 11 0 0.0 3.2 0.00 0.00 0.00 95 1012.3
20260510083052 11 0 0.0 3.2 0.00 0.00 0.00 95 1012.4
20260510082539 11 0 0.0 0.0 0.00 0.00 0.00 95 1012.3
20260510082038 11 0 0.0 0.0 0.00 0.00 0.00 95 1012.4
20260510081550 11 0 0.0 0.0 0.00 0.00 0.00 95 1012.2
20260510081040 11 0 0.0 0.0 0.00 0.00 0.00 95 1012.1
20260510080538 11 0 0.0 0.0 0.00 0.00 0.00 94 1012.1
20260510080056 11 0 0.0 0.0 0.00 0.00 0.00 94 1012.1
20260510075538 11 0 0.0 0.0 0.00 0.00 0.00 94 1012.3
20260510075038 11 0 0.0 0.0 0.00 0.00 0.00 94 1012.2
20260510074549 11 0 0.0 0.0 0.00 0.00 0.00 94 1012.2
20260510074043 11 0 0.0 0.0 0.00 0.00 0.00 94 1012.2
20260510073539 11 0 0.0 0.0 0.00 0.00 0.00 94 1012.1
20260510073052 11 0 0.0 0.0 0.00 0.00 0.00 94 1012.0
20260510072539 11 0 0.0 0.0 0.00 0.00 0.00 94 1012.0
20260510072039 11 0 0.0 0.0 0.00 0.00 0.00 94 1011.8
20260510071552 11 0 0.0 0.0 0.00 0.00 0.00 94 1011.9
20260510071038 11 0 0.0 0.0 0.00 0.00 0.00 94 1011.9
20260510070538 11 0 0.0 0.0 0.00 0.00 0.00 94 1011.9
20260510070059 10 0 0.0 0.0 0.00 0.00 0.00 94 1011.9
20260510065539 10 0 0.0 0.0 0.00 0.00 0.00 94 1011.8
20260510065039 10 0 0.0 0.0 0.00 0.00 0.00 94 1011.7
20260510064605 10 0 0.0 0.0 0.00 0.00 0.00 94 1011.8
20260510064038 10 0 0.0 0.0 0.00 0.00 0.00 94 1011.7
20260510063538 10 0 0.0 0.0 0.00 0.00 0.00 94 1011.6
20260510063049 10 0 0.0 3.2 0.00 0.00 0.00 94 1011.7
20260510062538 11 0 0.0 3.2 0.00 0.00 0.00 94 1011.6
20260510062041 11 0 0.0 3.2 0.00 0.00 0.00 94 1011.7
20260510061551 11 0 0.0 0.0 0.00 0.00 0.00 94 1011.9
20260510061039 11 0 0.0 0.0 0.00 0.00 0.00 94 1011.9
20260510060542 11 0 0.0 0.0 0.00 0.00 0.00 94 1011.9
20260510060052 11 0 0.0 0.0 0.00 0.00 0.00 94 1011.8
20260510055538 11 0 0.0 0.0 0.00 0.00 0.00 94 1011.8
20260510055039 11 0 0.0 0.0 0.00 0.00 0.00 94 1011.8
20260510054552 11 0 0.0 0.0 0.00 0.00 0.00 94 1011.9
20260510054039 11 0 0.0 1.6 0.00 0.00 0.00 94 1011.9
20260510053539 11 0 0.0 1.6 0.00 0.00 0.00 94 1011.8
20260510053051 11 195 0.0 3.2 0.00 0.00 0.00 94 1011.8
20260510052538 11 0 0.0 3.2 0.00 0.00 0.00 94 1011.8
20260510052040 11 0 0.0 0.0 0.00 0.00 0.00 94 1011.9
20260510051557 11 0 0.0 1.6 0.00 0.00 0.00 94 1011.8
20260510051039 11 0 0.0 1.6 0.00 0.00 0.00 94 1011.8
20260510050539 11 0 0.0 1.6 0.00 0.00 0.00 94 1011.7
20260510050051 11 0 0.0 1.6 0.00 0.00 0.00 94 1011.8
20260510045538 11 0 0.0 1.6 0.00 0.00 0.00 94 1011.9
20260510045039 11 0 0.0 0.0 0.00 0.00 0.00 94 1011.8
20260510044559 11 0 0.0 0.0 0.00 0.00 0.00 94 1011.8
20260510044038 11 0 0.0 0.0 0.00 0.00 0.00 94 1011.8
20260510043538 11 0 0.0 0.0 0.00 0.00 0.00 94 1011.8
20260510043054 11 0 0.0 4.8 0.00 0.00 0.00 94 1011.8
20260510042541 11 0 0.0 4.8 0.00 0.00 0.00 94 1011.8
20260510042039 11 0 0.0 1.6 0.00 0.00 0.00 94 1011.9
20260510041634 11 0 0.0 1.6 0.00 0.00 0.00 94 1012.0
20260510041041 11 0 0.0 3.2 0.00 0.00 0.00 94 1012.0
20260510040540 11 0 0.0 3.2 0.00 0.00 0.00 94 1012.0
20260510040053 11 184 0.0 3.2 0.00 0.00 0.00 94 1012.0
20260510035538 11 0 0.0 4.8 0.00 0.00 0.00 94 1011.9
20260510035038 11 184 1.6 4.8 0.00 0.00 0.00 94 1011.8
20260510034602 11 75 1.6 4.8 0.00 0.00 0.00 94 1011.9
20260510034039 11 0 0.0 4.8 0.00 0.00 0.00 94 1011.9
20260510033538 11 237 0.0 3.2 0.00 0.00 0.00 94 1012.1
20260510033050 11 0 0.0 3.2 0.00 0.00 0.00 94 1012.1
20260510032537 11 0 0.0 3.2 0.00 0.00 0.00 94 1012.0
20260510032041 11 0 0.0 3.2 0.00 0.00 0.00 94 1011.8
20260510031602 10 237 0.0 3.2 0.00 0.00 0.00 94 1011.9
20260510031038 10 0 0.0 8.0 0.00 0.00 0.00 94 1012.0
20260510030537 10 0 0.0 8.0 0.00 0.00 0.00 94 1011.9
20260510030057 10 0 0.0 8.0 0.00 0.00 0.00 94 1011.9
20260510025538 10 0 0.0 3.2 0.00 0.00 0.00 94 1012.0
20260510025043 10 0 0.0 1.6 0.00 0.00 0.00 94 1012.1
20260510024552 10 0 0.0 1.6 0.00 0.00 0.00 94 1012.1
20260510024042 10 0 0.0 1.6 0.00 0.00 0.00 94 1012.2
20260510023538 10 0 0.0 1.6 0.00 0.00 0.00 94 1012.1
20260510023049 10 0 0.0 1.6 0.00 0.00 0.00 93 1012.2
20260510022538 10 0 0.0 1.6 0.00 0.00 0.00 93 1012.1
20260510022038 10 0 0.0 1.6 0.00 0.00 0.00 93 1012.2
20260510021552 10 0 0.0 1.6 0.00 0.00 0.00 93 1012.2
20260510021039 10 0 0.0 1.6 0.00 0.00 0.00 93 1012.1
20260510020539 10 0 0.0 1.6 0.00 0.00 0.00 93 1012.3
20260510020048 10 0 0.0 3.2 0.00 0.00 0.00 93 1012.4
20260510015541 10 0 0.0 3.2 0.00 0.00 0.00 93 1012.7
20260510015036 10 0 0.0 1.6 0.00 0.00 0.00 93 1012.8
20260510014550 10 0 0.0 4.8 0.00 0.00 0.00 93 1013.0
20260510014038 10 0 0.0 4.8 0.00 0.00 0.00 93 1013.0
20260510013539 10 0 0.0 3.2 0.00 0.00 0.00 93 1013.0
20260510013052 10 0 0.0 4.8 0.00 0.00 0.00 93 1013.0
20260510012538 10 0 0.0 6.4 0.00 0.00 0.00 93 1013.0
20260510012038 10 0 0.0 6.4 0.00 0.00 0.00 93 1013.0
20260510011549 10 0 0.0 0.0 0.00 0.00 0.00 93 1013.0
20260510011037 10 0 0.0 0.0 0.00 0.00 0.00 93 1013.0
20260510010537 10 0 0.0 3.2 0.00 0.00 0.00 93 1013.1
20260510010047 10 0 0.0 3.2 0.00 0.00 0.00 93 1013.1
20260510005538 10 0 0.0 3.2 0.00 0.00 0.00 93 1013.0
20260510005037 10 0 0.0 3.2 0.00 0.00 0.00 93 1013.0
20260510004548 10 0 0.0 3.2 0.00 0.00 0.00 93 1013.0
20260510004037 10 0 0.0 3.2 0.00 0.00 0.00 93 1013.2
20260510003547 10 287 0.0 3.2 0.00 0.00 0.00 93 1013.2
20260510003055 10 0 0.0 3.2 0.00 0.00 0.00 93 1013.3
20260510002536 11 0 0.0 3.2 0.00 0.00 0.00 93 1013.2
20260510002040 11 0 0.0 3.2 0.00 0.00 0.00 93 1013.3
20260510001552 11 0 0.0 3.2 0.00 0.00 0.00 93 1013.4
20260510001038 11 0 0.0 3.2 0.00 0.00 0.00 93 1013.4
20260510000539 11 316 0.0 3.2 0.00 0.00 0.00 93 1013.3
20260509235538 11 0 0.0 1.6 0.00 0.00 0.00 93 1013.5
20260509235038 11 0 0.0 1.6 0.00 0.00 0.00 93 1013.6
20260509234601 11 0 0.0 1.6 0.00 0.00 0.00 93 1013.6
20260509234038 11 0 0.0 1.6 0.00 0.00 0.00 93 1013.7
20260509233536 11 0 0.0 3.2 0.00 0.00 0.00 92 1013.8
20260509233056 11 0 0.0 3.2 0.00 0.00 0.00 92 1013.8
20260509232540 11 0 0.0 3.2 0.00 0.00 0.00 92 1013.8
20260509232039 11 75 0.0 3.2 0.00 0.00 0.00 92 1013.7
20260509231608 11 0 0.0 3.2 0.00 0.00 0.00 92 1013.8
20260509231041 11 0 0.0 6.4 0.00 0.00 0.00 92 1013.6
20260509230539 11 329 0.0 6.4 0.00 0.00 0.00 92 1013.6
20260509225540 11 253 1.6 4.8 0.00 0.00 0.00 92 1013.6
20260509225040 11 24 1.6 8.0 0.00 0.00 0.00 92 1013.6
20260509224557 11 0 1.6 8.0 0.00 0.00 0.00 92 1013.6
20260509224041 11 297 1.6 9.7 0.00 0.00 0.00 92 1013.5
20260509223538 11 51 1.6 9.7 0.00 0.00 0.00 92 1013.5
20260509223049 11 57 1.6 8.0 0.00 0.00 0.00 92 1013.4
20260509222543 11 0 0.0 8.0 0.00 0.00 0.00 92 1013.5
20260509222038 11 103 0.0 4.8 0.00 0.00 0.00 91 1013.4
20260509221557 11 0 0.0 6.4 0.00 0.00 0.00 92 1013.5
20260509221041 11 0 0.0 6.4 0.00 0.00 0.00 91 1013.3
20260509220537 11 359 1.6 6.4 0.00 0.00 0.00 91 1013.3
20260509220050 11 66 0.0 3.2 0.00 0.00 0.00 91 1013.3
20260509215539 11 0 0.0 3.2 0.00 0.00 0.00 91 1013.3
20260509215038 12 66 0.0 1.6 0.00 0.00 0.00 91 1013.2
20260509214551 12 0 0.0 3.2 0.00 0.00 0.00 91 1013.0
20260509214038 12 0 0.0 3.2 0.00 0.00 0.00 90 1012.9
20260509213539 12 0 0.0 4.8 0.00 0.00 0.00 90 1012.9
20260509213053 12 0 0.0 4.8 0.00 0.00 0.00 90 1012.9
20260509212539 12 0 0.0 4.8 0.00 0.00 0.00 90 1012.8
20260509212043 12 116 0.0 3.2 0.00 0.00 0.00 90 1012.7
20260509211558 12 232 0.0 3.2 0.00 0.00 0.00 90 1012.7
20260509211038 12 0 0.0 4.8 0.00 0.00 0.00 89 1012.7
20260509210538 12 0 0.0 4.8 0.00 0.00 0.00 89 1012.4
20260509210104 13 0 0.0 4.8 0.00 0.00 0.00 88 1012.5